TimeCDT,TemperatureF,Dew PointF,Humidity,Sea Level PressureIn,VisibilityMPH,Wind Direction,Wind SpeedMPH,Gust SpeedMPH,PrecipitationIn,Events,Conditions,WindDirDegrees,DateUTC
12:55 AM,61.5,55.8,81,30.17,10.0,SW,3.5,-,N/A,,Clear,230,2012-03-19 05:55:00
1:55 AM,61.3,56.1,83,30.16,10.0,Calm,Calm,-,N/A,,Clear,0,2012-03-19 06:55:00
2:55 AM,60.4,56.1,86,30.15,10.0,Calm,Calm,-,N/A,,Clear,0,2012-03-19 07:55:00
3:55 AM,57.7,55.4,92,30.14,10.0,NNE,3.5,-,N/A,,Clear,30,2012-03-19 08:55:00
4:55 AM,58.3,55.6,91,30.13,10.0,NE,4.6,-,N/A,,Clear,50,2012-03-19 09:55:00
5:55 AM,57.9,55.4,91,30.14,10.0,NNE,4.6,-,N/A,,Clear,20,2012-03-19 10:55:00
6:55 AM,56.8,55.0,94,30.15,10.0,NE,5.8,-,N/A,,Clear,50,2012-03-19 11:55:00
7:55 AM,60.3,57.0,89,30.17,10.0,Calm,Calm,-,N/A,,Clear,0,2012-03-19 12:55:00
8:55 AM,67.1,57.6,71,30.19,10.0,ESE,5.8,-,N/A,,Clear,110,2012-03-19 13:55:00
9:55 AM,73.9,56.7,55,30.19,10.0,East,5.8,-,N/A,,Clear,100,2012-03-19 14:55:00
10:55 AM,78.1,57.4,49,30.18,10.0,Variable,4.6,-,N/A,,Clear,0,2012-03-19 15:55:00
11:55 AM,82.4,55.4,39,30.20,10.0,ESE,12.7,-,N/A,,Partly Cloudy,110,2012-03-19 16:55:00
12:55 PM,84.2,55.4,37,30.19,10.0,South,5.8,-,N/A,,Partly Cloudy,180,2012-03-19 17:55:00
1:55 PM,83.7,58.1,42,30.12,10.0,ESE,10.4,-,N/A,,Unknown,120,2012-03-19 18:55:00
1:57 PM,84.2,59.0,42,30.14,10.0,SE,6.9,17.3,N/A,,Scattered Clouds,130,2012-03-19 18:57:00
2:55 PM,84.6,58.6,41,30.10,10.0,SSE,9.2,-,N/A,,Partly Cloudy,160,2012-03-19 19:55:00
3:55 PM,83.7,58.5,42,30.09,10.0,SSE,8.1,-,N/A,,Clear,150,2012-03-19 20:55:00
4:55 PM,83.7,58.3,42,30.07,10.0,ESE,5.8,-,N/A,,Clear,110,2012-03-19 21:55:00
5:55 PM,82.2,58.6,45,30.07,10.0,ESE,5.8,-,N/A,,Clear,110,2012-03-19 22:55:00
6:55 PM,78.8,59.5,52,30.07,10.0,ESE,3.5,-,N/A,,Partly Cloudy,110,2012-03-19 23:55:00
7:55 PM,75.0,64.0,69,30.09,10.0,SSW,6.9,-,N/A,,Clear,210,2012-03-20 00:55:00
8:55 PM,72.0,64.0,76,30.10,10.0,South,4.6,-,N/A,,Partly Cloudy,190,2012-03-20 01:55:00
9:55 PM,69.4,63.1,80,30.09,10.0,South,3.5,-,N/A,,Clear,190,2012-03-20 02:55:00
10:55 PM,67.3,62.6,85,30.09,10.0,South,4.6,-,N/A,,Clear,180,2012-03-20 03:55:00
11:55 PM,65.1,62.4,91,30.07,5.0,Calm,Calm,-,N/A,,Clear,0,2012-03-20 04:55:00